CW9353 Weather Reports


time (UTC)temp
C
wind
direction
speed
KPH
gust
KPH
rain 1hr
cm
rain 24hr
cm
rain mn
cm
humidity
%
barometer
mb
20260504201512 11 55 0.0 0.0 0.00 0.00 0.00 42 1011.5
20260504200012 11 41 0.0 0.0 0.00 0.00 0.00 42 1011.4
20260504194512 11 360 0.0 0.0 0.00 0.00 0.00 45 1011.3
20260504193011 10 49 0.0 0.0 0.00 0.00 0.00 48 1011.4
20260504191510 10 64 0.0 0.0 0.00 0.00 0.00 47 1011.3
20260504190012 10 60 0.0 0.0 0.00 0.00 0.00 46 1011.1
20260504184509 11 64 0.0 0.0 0.00 0.00 0.00 43 1011.1
20260504183009 11 67 0.0 0.0 0.00 0.00 0.00 44 1011.2
20260504181511 11 65 0.0 0.0 0.00 0.00 0.00 42 1011.1
20260504180006 12 67 0.0 0.0 0.00 0.00 0.00 44 1011.1
20260504174506 11 65 0.0 0.0 0.00 0.00 0.00 43 1011.1
20260504173003 11 27 0.0 0.0 0.00 0.00 0.00 44 1011.4
20260504171503 11 57 0.0 0.0 0.00 0.00 0.00 46 1011.4
20260504081505 7 169 0.0 0.0 0.00 0.00 0.00 61 1005.9
20260504044539 12 196 0.0 0.0 0.00 0.00 0.00 41 1005.6
20260504043043 12 198 0.0 0.0 0.00 0.00 0.00 44 1005.6
20260504041536 12 198 0.0 0.0 0.00 0.00 0.00 45 1005.4
20260504040036 12 208 0.0 0.0 0.00 0.00 0.00 44 1005.2
20260504034539 13 209 0.0 0.0 0.00 0.00 0.00 43 1005.4
20260504033039 13 212 0.0 0.0 0.00 0.00 0.00 45 1005.3
20260504031534 15 212 0.0 0.0 0.00 0.00 0.00 39 1004.8
20260504030033 17 211 0.0 0.0 0.00 0.00 0.00 35 1004.6
20260504024533 18 212 0.0 0.0 0.00 0.00 0.00 30 1004.6
20260504023032 18 212 0.0 0.0 0.00 0.00 0.00 30 1004.4
20260504021535 19 212 0.0 0.0 0.00 0.00 0.00 30 1004.4
20260504020037 20 212 0.0 0.0 0.00 0.00 0.00 28 1004.4
20260504014537 20 212 0.0 0.0 0.00 0.00 0.00 27 1004.3
20260504013031 21 212 0.0 0.0 0.00 0.00 0.00 27 1004.5
20260504011529 21 211 0.0 0.0 0.00 0.00 0.00 27 1004.5
20260504010026 21 212 0.0 0.0 0.00 0.00 0.00 25 1004.6
20260504004525 22 223 0.0 0.0 0.00 0.00 0.00 26 1004.8
20260504003024 22 240 0.0 0.0 0.00 0.00 0.00 25 1005.1
20260504001524 22 209 0.0 0.0 0.00 0.00 0.00 25 1004.9
20260504000020 22 221 0.0 0.0 0.00 0.00 0.00 25 1005.5
20260503234521 22 232 0.0 0.0 0.00 0.00 0.00 24 1005.5
20260503233018 22 242 0.0 0.0 0.00 0.00 0.00 23 1005.5
20260503231521 22 234 0.0 0.0 0.00 0.00 0.00 23 1005.9
20260503230017 22 225 0.0 0.0 0.00 0.00 0.00 22 1006.1
20260503224514 22 219 0.0 0.0 0.00 0.00 0.00 22 1006.1
20260503223013 22 208 0.0 0.0 0.00 0.00 0.00 22 1006.2
20260503221512 22 227 0.0 0.0 0.00 0.00 0.00 22 1006.5
20260503220009 22 203 0.0 0.0 0.00 0.00 0.00 23 1006.6
20260503214525 22 242 0.0 0.0 0.00 0.00 0.00 22 1006.8
20260503213005 22 221 0.0 0.0 0.00 0.00 0.00 23 1007.1
20260503211501 22 227 0.0 0.0 0.00 0.00 0.00 24 1007.6
20260503210100 22 242 0.0 0.0 0.00 0.00 0.00 25 1007.7
20260503204559 22 211 0.0 0.0 0.00 0.00 0.00 25 1007.9
20260503203056 22 227 0.0 0.0 0.00 0.00 0.00 24 1008.1